Weather History for KSMQ - October, 2012

Change the Weather History Date:

Sunday, October 7, 2012

  Actual Average Record
Temperature  
Mean Temperature 44 °F -  
Max Temperature 52 °F 68 °F 88 °F (1946)
Min Temperature 37 °F 42 °F 30 °F (1984)
Degree Days  
Heating Degree Days 20    
Moisture  
Dew Point 43 °F    
Average Humidity 89    
Maximum Humidity 97    
Minimum Humidity 69    
Precipitation  
Precipitation 0.13 in - - ()
Sea Level Pressure  
Sea Level Pressure 30.07 in    
Wind  
Wind Speed 0 mph (WNW)    
Max Wind Speed 4 mph    
Max Gust Speed -    
Visibility 7 miles    
Events Fog , Rain    
Averages and records for this station are not official NWS values.
T = Trace of Precipitation, MM = Missing Value Source: NWS Daily Summary

Daily Weather History Graph

Daily Weather History Graph

Search for Another Location

Airport or City:

Trip Planner

Search our weather history database for the weather conditions in past years. The results will help you decide how hot, cold, wet, or windy it might be!

Date:

Astronomy

Oct. 07, 2012 Rise Set
Actual Time 7:01 AM EDT 6:30 PM EDT
Civil Twilight 6:34 AM EDT 6:57 PM EDT
Nautical Twilight 6:02 AM EDT 7:29 PM EDT
Astronomical Twilight 5:30 AM EDT 8:00 PM EDT
Moon 11:38 PM EDT 1:38 PM EDT
Length of Visible Light 12h 23m
Length of Day
11h 28m
Waning Gibbous, 56% of the Moon is Illuminated
Oct 7
Waning Gibbous
Oct 8
Last Quarter
Oct 15
New
Oct 21
First Quarter
Oct 29
Full

Hourly Weather History & Observations

Time (EDT) Temp. Dew Point Humidity Pressure Visibility Wind Dir Wind Speed Gust Speed Precip Events Conditions
12:53 AM 46.0 °F 44.1 °F 93% 30.01 in 10.0 mi Calm Calm - N/A   Clear
1:53 AM 43.0 °F 41.0 °F 93% 30.02 in 9.0 mi Calm Calm - N/A   Clear
2:53 AM 43.0 °F 41.0 °F 93% 30.02 in 9.0 mi Calm Calm - 0.01 in   Clear
3:53 AM 42.1 °F 39.9 °F 92% 30.02 in 10.0 mi Calm Calm - N/A   Clear
4:34 AM 39.2 °F 37.4 °F 93% 30.03 in 1.8 mi Calm Calm - N/A   Clear
4:42 AM 39.2 °F 37.4 °F 93% 30.03 in 3.0 mi Calm Calm - N/A   Clear
4:53 AM 41.0 °F 39.0 °F 93% 30.04 in 8.0 mi Calm Calm - N/A   Clear
5:36 AM 39.2 °F 37.4 °F 93% 30.07 in 5.0 mi Calm Calm - N/A   Partly Cloudy
5:46 AM 39.2 °F 37.4 °F 93% 30.07 in 2.0 mi Calm Calm - N/A   Clear
5:53 AM 37.9 °F 37.0 °F 97% 30.08 in 8.0 mi Calm Calm - N/A   Clear
6:53 AM 42.1 °F 39.9 °F 92% 30.07 in 10.0 mi Calm Calm - N/A   Partly Cloudy
7:53 AM 44.1 °F 42.1 °F 93% 30.09 in 10.0 mi Calm Calm - N/A   Overcast
8:53 AM 46.0 °F 43.0 °F 89% 30.09 in 10.0 mi Calm Calm - N/A   Overcast
9:53 AM 48.0 °F 45.0 °F 89% 30.11 in 10.0 mi Calm Calm - N/A   Overcast
10:53 AM 50.0 °F 46.0 °F 86% 30.12 in 10.0 mi Calm Calm - 0.00 in Rain Light Rain
11:53 AM 50.0 °F 46.0 °F 86% 30.10 in 10.0 mi Calm Calm - 0.02 in Rain Light Rain
12:53 PM 50.0 °F 46.0 °F 86% 30.10 in 10.0 mi Calm Calm - 0.01 in Rain Light Rain
1:53 PM 50.0 °F 42.1 °F 74% 30.07 in 10.0 mi Calm Calm - 0.00 in   Overcast
2:53 PM 51.1 °F 43.0 °F 74% 30.06 in 10.0 mi Calm Calm - N/A   Overcast
3:53 PM 52.0 °F 42.1 °F 69% 30.03 in 10.0 mi Calm Calm - N/A   Overcast
4:53 PM 52.0 °F 45.0 °F 77% 30.02 in 10.0 mi Calm Calm - 0.01 in   Overcast
5:53 PM 51.1 °F 45.0 °F 80% 30.03 in 10.0 mi Calm Calm - N/A   Overcast
6:53 PM 51.1 °F 46.0 °F 83% 30.04 in 8.0 mi Calm Calm - 0.00 in Rain Light Rain
7:53 PM 48.9 °F 46.0 °F 90% 30.09 in 10.0 mi Calm Calm - 0.00 in   Overcast
8:53 PM 48.9 °F 46.9 °F 93% 30.11 in 7.0 mi WNW 3.5 mph - 0.04 in Rain Light Rain
9:53 PM 48.9 °F 46.0 °F 90% 30.12 in 9.0 mi Calm Calm - 0.03 in Rain Light Rain
10:53 PM 48.0 °F 46.0 °F 93% 30.12 in 5.0 mi Calm Calm - 0.00 in   Overcast
11:17 PM 46.4 °F 44.6 °F 93% 30.11 in 1.5 mi Calm Calm - N/A   Scattered Clouds
11:21 PM 46.4 °F 44.6 °F 93% 30.11 in 0.8 mi Calm Calm - N/A   Scattered Clouds
11:36 PM 44.6 °F 42.8 °F 93% 30.10 in 0.2 mi Calm Calm - N/A Fog Fog
11:53 PM 44.1 °F 42.1 °F 93% 30.11 in 0.5 mi Calm Calm - 0.01 in Fog Fog